User: anonymous   Login
Location: Unspecified
(0.0000°N, 0.0000°E)
Time: 15:50:05
(UTC+00:00)
Language:

COSMOS 2496 - Orbit

View from above orbital plane
View from above orbital plane
View from above satellite
View from above satellite

Ground track
Ground track

The orbit data is extracted from the following two-line orbital elements,

1 39761U 14028A   18260.70375936  .00000014  00000-0  31309-4 0  9993
2 39761  82.4409  81.0769 0020003 120.7717 239.5335 12.42891294196082
Epoch (UTC): 17 September 2018 16:53:24
Eccentricity: 0.0020003
inclination: 82.4409°
perigee height: 1478 km
apogee height: 1510 km
right ascension of ascending node: 81.0769°
argument of perigee: 120.7717°
revolutions per day: 12.42891294
mean anomaly at epoch: 239.5335°
orbit number at epoch: 19608

The dashed part of the orbit path shows where the satellite is in the earth's shadow,  

DLR